TimeCET,TemperatureF,Dew PointF,Humidity,Sea Level PressureIn,VisibilityMPH,Wind Direction,Wind SpeedMPH,Gust SpeedMPH,PrecipitationIn,Events,Conditions,WindDirDegrees,DateUTC
12:00 AM,53.6,48.2,82,30.21,-9999.0,Variable,11.5,-,N/A,,Clear,0,2012-11-23 23:00:00
12:30 AM,53.6,48.2,82,30.21,-9999.0,North,9.2,-,N/A,,Clear,350,2012-11-23 23:30:00
1:00 AM,53.6,48.2,82,30.21,-9999.0,North,12.7,-,N/A,,Clear,10,2012-11-24 00:00:00
1:30 AM,55.4,46.4,72,30.18,-9999.0,North,12.7,-,N/A,,Clear,360,2012-11-24 00:30:00
2:00 AM,55.4,46.4,72,30.18,-9999.0,North,11.5,-,N/A,,Clear,10,2012-11-24 01:00:00
2:30 AM,55.4,46.4,72,30.18,-9999.0,North,13.8,-,N/A,,Clear,360,2012-11-24 01:30:00
3:00 AM,55.4,46.4,72,30.18,-9999.0,North,11.5,-,N/A,,Clear,360,2012-11-24 02:00:00
3:30 AM,53.6,46.4,77,30.18,-9999.0,North,12.7,-,N/A,,Clear,10,2012-11-24 02:30:00
4:00 AM,54,46,67,30.19,12,North,11.2,,,,,0,2012-11-24 03:00:00
4:00 AM,53.6,46.4,77,30.18,-9999.0,North,10.4,-,N/A,,Clear,360,2012-11-24 03:00:00
4:30 AM,53.6,46.4,77,30.18,-9999.0,North,11.5,-,N/A,,Clear,10,2012-11-24 03:30:00
5:00 AM,55.4,44.6,67,30.18,-9999.0,NE,6.9,-,N/A,,Clear,40,2012-11-24 04:00:00
5:30 AM,55.4,44.6,67,30.18,-9999.0,North,8.1,-,N/A,,Clear,360,2012-11-24 04:30:00
6:00 AM,55.4,44.6,67,30.18,-9999.0,NNE,10.4,-,N/A,,Clear,30,2012-11-24 05:00:00
6:30 AM,55.4,44.6,67,30.18,-9999.0,NE,8.1,-,N/A,,Clear,40,2012-11-24 05:30:00
7:00 AM,54,44,61,30.20,12,NNE,8.9,,,,Clear,30,2012-11-24 06:00:00
7:00 AM,53.6,44.6,72,30.18,-9999.0,NNE,8.1,-,N/A,,Clear,30,2012-11-24 06:00:00
7:30 AM,53.6,44.6,72,30.18,-9999.0,NE,5.8,-,N/A,,Clear,50,2012-11-24 06:30:00
8:00 AM,55.4,46.4,72,30.18,-9999.0,NE,6.9,-,N/A,,Clear,50,2012-11-24 07:00:00
8:30 AM,55.4,46.4,72,30.21,-9999.0,ENE,6.9,-,N/A,,Clear,60,2012-11-24 07:30:00
9:00 AM,57.2,48.2,72,30.21,-9999.0,East,4.6,-,N/A,,Clear,80,2012-11-24 08:00:00
9:30 AM,60.8,46.4,59,30.21,-9999.0,Variable,2.3,-,N/A,,Clear,0,2012-11-24 08:30:00
10:00 AM,60,49,59,30.23,19,ESE,2.2,,,,Clear,120,2012-11-24 09:00:00
10:00 AM,60.8,50.0,68,30.21,-9999.0,Variable,2.3,-,N/A,,Clear,0,2012-11-24 09:00:00
10:30 AM,59.0,48.2,67,30.21,-9999.0,ENE,4.6,-,N/A,,Clear,70,2012-11-24 09:30:00
11:00 AM,62.6,50.0,63,30.21,-9999.0,NE,3.5,-,N/A,,Clear,40,2012-11-24 10:00:00
11:30 AM,62.6,50.0,63,30.21,-9999.0,Variable,2.3,-,N/A,,Clear,0,2012-11-24 10:30:00
12:00 PM,62.6,51.8,68,30.21,-9999.0,SSW,3.5,-,N/A,,Clear,210,2012-11-24 11:00:00
12:30 PM,60.8,51.8,72,30.21,6.2,SSW,4.6,-,N/A,,Partly Cloudy,210,2012-11-24 11:30:00
1:00 PM,62,51,59,30.19,16,South,4.5,,,,Scattered Clouds,190,2012-11-24 12:00:00
1:00 PM,62.6,51.8,68,30.18,6.2,South,4.6,-,N/A,,Partly Cloudy,180,2012-11-24 12:00:00
1:30 PM,60.8,51.8,72,30.18,6.2,SSW,4.6,-,N/A,,Partly Cloudy,200,2012-11-24 12:30:00
2:00 PM,60.8,50.0,68,30.18,6.2,WSW,5.8,-,N/A,,Partly Cloudy,250,2012-11-24 13:00:00
2:30 PM,60.8,50.0,68,30.18,-9999.0,West,5.8,-,N/A,,Clear,280,2012-11-24 13:30:00
3:00 PM,60.8,51.8,72,30.18,-9999.0,WNW,5.8,-,N/A,,Clear,290,2012-11-24 14:00:00
3:30 PM,59.0,50.0,72,30.18,-9999.0,WNW,3.5,-,N/A,,Clear,300,2012-11-24 14:30:00
4:00 PM,58,51,69,30.19,12,WNW,4.5,,,,Clear,290,2012-11-24 15:00:00
4:00 PM,57.2,50.0,77,30.18,-9999.0,WNW,3.5,-,N/A,,Clear,290,2012-11-24 15:00:00
4:30 PM,55.4,50.0,82,30.18,-9999.0,Variable,1.2,-,N/A,,Clear,0,2012-11-24 15:30:00
5:00 PM,53.6,48.2,82,30.18,-9999.0,Calm,Calm,-,N/A,,Clear,0,2012-11-24 16:00:00
5:30 PM,55.4,50.0,82,30.18,-9999.0,NW,5.8,-,N/A,,Clear,310,2012-11-24 16:30:00
6:00 PM,55.4,50.0,82,30.18,-9999.0,NW,4.6,-,N/A,,Clear,310,2012-11-24 17:00:00
6:30 PM,55.4,50.0,82,30.18,-9999.0,Variable,2.3,-,N/A,,Clear,0,2012-11-24 17:30:00
7:00 PM,54,48,75,30.21,9,NNE,2.2,,,,,20,2012-11-24 18:00:00
7:00 PM,53.6,48.2,82,30.18,-9999.0,Variable,2.3,-,N/A,,Clear,0,2012-11-24 18:00:00
7:30 PM,55.4,48.2,77,30.21,-9999.0,NE,3.5,-,N/A,,Clear,40,2012-11-24 18:30:00
8:00 PM,51.8,48.2,88,30.21,-9999.0,Variable,1.2,-,N/A,,Clear,0,2012-11-24 19:00:00
8:30 PM,51.8,46.4,82,30.21,-9999.0,ENE,5.8,-,N/A,,Clear,60,2012-11-24 19:30:00
9:00 PM,51.8,44.6,76,30.21,-9999.0,Variable,2.3,-,N/A,,Clear,0,2012-11-24 20:00:00
9:30 PM,51.8,46.4,82,30.21,-9999.0,NE,4.6,-,N/A,,Clear,40,2012-11-24 20:30:00
10:00 PM,54,47,72,30.22,9,NNE,6.7,,,,,30,2012-11-24 21:00:00
10:00 PM,53.6,48.2,82,30.21,-9999.0,NNE,6.9,-,N/A,,Clear,20,2012-11-24 21:00:00
10:30 PM,53.6,48.2,82,30.21,-9999.0,North,6.9,-,N/A,,Clear,10,2012-11-24 21:30:00
11:00 PM,53.6,46.4,77,30.21,-9999.0,NNE,8.1,-,N/A,,Clear,20,2012-11-24 22:00:00
11:30 PM,53.6,46.4,77,30.21,-9999.0,North,6.9,-,N/A,,Clear,360,2012-11-24 22:30:00